EDT,Max TemperatureF,Mean TemperatureF,Min TemperatureF,Max Dew PointF,MeanDew PointF,Min DewpointF,Max Humidity, Mean Humidity, Min Humidity, Max Sea Level PressureIn, Mean Sea Level PressureIn, Min Sea Level PressureIn, Max VisibilityMiles, Mean VisibilityMiles, Min VisibilityMiles, Max Wind SpeedMPH, Mean Wind SpeedMPH, Max Gust SpeedMPH,PrecipitationIn, CloudCover, Events, WindDirDegrees
2012-10-1,86,81,77,79,76,74,89,82,69,29.84,29.81,29.75,10,10,1,21,11,29,0.45,2,Rain-Thunderstorm,176
2012-10-2,88,81,75,75,74,73,100,85,61,30.06,29.94,29.84,10,9,2,24,13,36,0.24,2,Rain-Thunderstorm,214
2012-10-3,87,81,75,78,74,70,94,85,74,30.20,30.13,30.05,10,10,9,20,9,24,0.02,2,Rain-Thunderstorm,197
2012-10-4,87,82,76,78,76,73,94,83,73,30.19,30.15,30.10,10,9,3,10,8,,0.17,2,Rain,81
2012-10-5,86,82,78,77,76,74,94,84,75,30.12,30.06,29.99,10,10,8,15,10,,0.07,1,Rain,90
2012-10-6,86,82,77,77,75,72,94,83,68,29.99,29.95,29.90,10,10,9,17,8,,0.09,1,Rain-Thunderstorm,101
2012-10-7,85,79,74,76,74,72,92,82,70,30.00,29.97,29.93,10,10,10,9,6,,0.00,0,,78
2012-10-8,84,80,76,76,73,70,91,82,66,30.05,30.00,29.95,10,10,10,14,6,,0.00,1,,138
2012-10-9,85,80,75,75,73,70,94,82,71,30.06,30.02,29.97,10,10,10,20,9,,0.00,2,,8
2012-10-10,84,78,75,72,69,62,88,73,62,30.12,30.08,30.02,10,10,10,17,11,,0.00,2,,21
2012-10-11,84,78,74,68,65,63,73,63,54,30.17,30.13,30.09,10,10,10,17,13,21,0.00,1,,41
2012-10-12,83,80,76,66,64,62,70,60,53,30.19,30.14,30.10,10,10,10,17,16,,0.00,1,,36
2012-10-13,84,80,77,70,67,63,74,63,55,30.18,30.13,30.10,10,10,10,24,20,30,0.00,2,,58
2012-10-14,86,82,79,73,70,65,80,68,60,30.12,30.06,30.00,10,10,10,22,17,,0.00,0,,83
2012-10-15,85,81,76,74,72,70,93,77,66,29.98,29.90,29.83,10,10,10,16,10,,0.00,0,Rain,62
2012-10-16,83,78,73,73,69,66,94,75,57,29.87,29.84,29.81,10,10,10,15,9,,0.00,0,,4
2012-10-17,82,76,69,73,69,64,94,80,66,29.91,29.86,29.83,10,9,1,21,8,30,0.62,3,Rain-Thunderstorm,115
2012-10-18,84,76,70,75,72,69,95,84,63,29.92,29.86,29.82,10,10,10,12,6,,0.00,0,,188
2012-10-19,85,78,72,75,71,67,94,77,58,29.90,29.86,29.81,10,10,10,13,7,,0.00,0,,209
2012-10-20,81,76,72,75,59,50,92,59,36,29.97,29.91,29.85,10,10,10,18,10,,0.00,0,,356
2012-10-21,81,74,68,64,60,56,79,59,44,30.06,30.01,29.96,10,10,10,14,8,,0.00,0,,13
2012-10-22,83,80,76,65,63,59,63,57,50,30.09,30.05,30.01,10,10,10,18,14,23,0.00,3,,53
2012-10-23,83,80,76,67,65,60,68,61,56,30.06,30.03,30.00,10,10,10,18,14,24,0.00,3,,60
2012-10-24,84,81,77,71,69,67,82,68,60,30.01,29.96,29.93,10,10,10,24,15,28,0.00,4,,63
2012-10-25,81,77,73,73,71,69,94,82,70,29.93,29.86,29.78,10,8,1,29,18,38,0.52,6,Rain-Thunderstorm,53
2012-10-26,79,75,71,72,69,64,89,82,67,29.76,29.65,29.53,10,7,2,38,26,55,0.61,5,Rain,19
2012-10-27,72,70,69,70,66,61,94,83,70,29.65,29.53,29.46,10,8,2,34,27,43,0.23,5,Rain,307
2012-10-28,76,69,62,62,60,56,85,73,60,29.76,29.69,29.65,10,10,10,20,17,,0.00,0,,284
2012-10-29,69,62,55,55,43,33,77,52,27,29.85,29.79,29.73,10,9,7,23,18,25,0.00,1,,276
2012-10-30,69,58,49,47,38,32,69,47,29,29.96,29.88,29.82,10,10,10,25,17,31,0.00,0,,273
2012-10-31,72,63,54,50,44,37,78,53,30,30.06,30.01,29.96,10,10,10,17,12,23,0.00,0,,281